AF5AA Weather Reports


Display with metric or nautical units.
time (UTC)temp
F
wind
direction
speed
MPH
gust
MPH
rain 1hr
in
rain 24hr
in
rain mn
in
humidity
%
barometer
mb
20260505130246 71 118 0.0 0.0 0.00 0.00 0.00 89 1007.0
20260505124737 71 127 0.0 1.0 0.00 0.00 0.00 89 1006.8
20260505124234 71 119 0.0 0.0 0.00 0.00 0.00 89 1006.8
20260505123729 71 161 0.0 0.0 0.00 0.00 0.00 89 1006.5
20260505123226 71 140 0.0 0.0 0.00 0.00 0.00 89 1006.8
20260505122723 71 130 1.0 1.0 0.00 0.00 0.00 89 1006.6
20260505122220 70 120 1.0 1.0 0.00 0.00 0.00 89 1006.7
20260505121716 70 122 0.0 0.0 0.00 0.00 0.00 89 1006.7
20260505121213 70 117 0.0 0.0 0.00 0.00 0.00 89 1006.5
20260505120710 70 111 0.0 1.0 0.00 0.00 0.00 89 1006.5
20260505120205 70 131 1.0 1.0 0.00 0.00 0.00 89 1006.3
20260505115659 70 156 1.0 1.0 0.00 0.00 0.00 89 1006.1
20260505115157 70 117 0.0 0.0 0.00 0.00 0.00 89 1006.1
20260505114654 70 139 1.0 1.0 0.00 0.00 0.00 89 1006.0
20260505114150 70 104 0.0 0.0 0.00 0.00 0.00 89 1006.1
20260505113647 70 114 0.0 0.0 0.00 0.00 0.00 89 1006.3
20260505113143 70 118 0.0 0.0 0.00 0.00 0.00 89 1006.3
20260505112640 70 132 0.0 1.0 0.00 0.00 0.00 89 1006.2
20260505112138 70 138 0.0 1.0 0.00 0.00 0.00 89 1006.3
20260505111637 70 121 0.0 0.0 0.00 0.00 0.00 89 1006.4
20260505111133 70 122 0.0 0.0 0.00 0.00 0.00 89 1006.3
20260505110630 70 143 1.0 1.0 0.00 0.00 0.00 89 1006.4
20260505110127 70 132 0.0 1.0 0.00 0.00 0.00 89 1006.5
20260505102103 69 123 2.0 2.0 0.00 0.00 0.00 89 1006.0
20260505101601 69 132 0.0 1.0 0.00 0.00 0.00 89 1005.9
20260505101057 69 120 0.0 0.0 0.00 0.00 0.00 88 1006.4
20260505100554 69 129 1.0 1.0 0.00 0.00 0.00 88 1006.1
20260505100051 69 140 0.0 0.0 0.00 0.00 0.00 89 1006.3
20260505095547 69 106 0.0 0.0 0.00 0.00 0.00 89 1006.2
20260505095043 69 124 0.0 0.0 0.00 0.00 0.00 88 1006.2
20260505094540 69 118 0.0 0.0 0.00 0.00 0.00 88 1005.8
20260505094036 69 112 0.0 0.0 0.00 0.00 0.00 88 1006.1
20260505093533 69 142 0.0 1.0 0.00 0.00 0.00 88 1006.0
20260505093030 69 147 0.0 0.0 0.00 0.00 0.00 89 1006.2
20260505092527 69 121 0.0 1.0 0.00 0.00 0.00 89 1006.2
20260505092026 69 120 0.0 0.0 0.00 0.00 0.00 89 1006.3
20260505091522 69 134 1.0 1.0 0.00 0.00 0.00 89 1006.4
20260505091020 69 134 0.0 1.0 0.00 0.00 0.00 89 1006.7
20260505090518 68 157 0.0 1.0 0.00 0.00 0.00 89 1006.6
20260505090016 68 128 0.0 0.0 0.00 0.00 0.00 89 1006.7
20260505085514 68 122 0.0 0.0 0.00 0.00 0.00 89 1006.6
20260505085012 68 129 0.0 0.0 0.00 0.00 0.00 89 1006.8
20260505084510 68 121 0.0 1.0 0.00 0.00 0.00 89 1006.8
20260505084007 68 124 1.0 1.0 0.00 0.00 0.00 89 1006.8
20260505083504 68 131 0.0 1.0 0.00 0.00 0.00 90 1007.0
20260505083001 68 129 0.0 0.0 0.00 0.00 0.00 90 1007.0
20260505082456 68 122 1.0 1.0 0.00 0.00 0.00 90 1006.8
20260505081953 68 113 0.0 0.0 0.00 0.00 0.00 90 1007.0
20260505081450 68 120 0.0 0.0 0.00 0.00 0.00 90 1007.2
20260505080946 68 116 0.0 0.0 0.00 0.00 0.00 90 1006.9
20260505080443 68 111 0.0 0.0 0.00 0.00 0.00 90 1007.1
20260505075938 68 125 0.0 0.0 0.00 0.00 0.00 90 1007.0
20260505075435 68 127 0.0 0.0 0.00 0.00 0.00 90 1007.3
20260505074933 68 112 0.0 0.0 0.00 0.00 0.00 89 1007.2
20260505074430 68 131 1.0 1.0 0.00 0.00 0.00 90 1007.2
20260505073927 68 121 0.0 1.0 0.00 0.00 0.00 90 1007.3
20260505073425 68 124 0.0 0.0 0.00 0.00 0.00 90 1007.3
20260505072921 68 131 0.0 0.0 0.00 0.00 0.00 89 1007.5
20260505072418 68 127 0.0 0.0 0.00 0.00 0.00 89 1007.5
20260505071914 68 121 0.0 0.0 0.00 0.00 0.00 89 1007.5
20260505071410 68 123 0.0 0.0 0.00 0.00 0.00 89 1007.7
20260505070908 68 116 0.0 0.0 0.00 0.00 0.00 89 1007.7
20260505070404 68 115 0.0 0.0 0.00 0.00 0.00 89 1007.6
20260505065900 68 117 0.0 0.0 0.00 0.00 0.00 89 1007.6
20260505065357 68 117 0.0 0.0 0.00 0.00 0.00 88 1007.5
20260505064854 68 117 0.0 0.0 0.00 0.00 0.00 88 1007.6
20260505064351 68 135 0.0 1.0 0.00 0.00 0.00 88 1007.7
20260505063850 68 116 0.0 0.0 0.00 0.00 0.00 88 1007.9
20260505063345 68 119 0.0 0.0 0.00 0.00 0.00 88 1008.1
20260505062842 68 118 0.0 0.0 0.00 0.00 0.00 88 1007.9
20260505062339 68 124 0.0 0.0 0.00 0.00 0.00 87 1008.2
20260505061836 68 165 0.0 1.0 0.00 0.00 0.00 87 1008.1
20260505061334 68 102 0.0 0.0 0.00 0.00 0.00 87 1008.2
20260505060831 68 100 0.0 0.0 0.00 0.00 0.00 86 1008.1
20260505060328 68 110 0.0 0.0 0.00 0.00 0.00 86 1008.1
20260505055824 69 117 0.0 0.0 0.00 0.00 0.00 85 1008.0
20260505055320 69 116 0.0 0.0 0.00 0.00 0.00 85 1008.0
20260505054818 69 124 0.0 1.0 0.00 0.00 0.00 85 1008.2
20260505054315 69 115 0.0 1.0 0.00 0.00 0.00 85 1008.2
20260505053813 69 119 0.0 0.0 0.00 0.00 0.00 85 1008.4
20260505053310 69 114 0.0 0.0 0.00 0.00 0.00 84 1008.3
20260505052806 69 93 0.0 0.0 0.00 0.00 0.00 84 1008.2
20260505052304 69 130 0.0 0.0 0.00 0.00 0.00 84 1008.2
20260505051800 69 101 0.0 0.0 0.00 0.00 0.00 83 1008.3
20260505051258 69 106 0.0 0.0 0.00 0.00 0.00 84 1008.4
20260505050756 69 105 0.0 0.0 0.00 0.00 0.00 83 1008.4
20260505050254 69 118 0.0 0.0 0.00 0.00 0.00 82 1008.4
20260505041729 70 89 0.0 0.0 0.00 0.02 0.02 82 1008.2
20260505041226 70 115 0.0 0.0 0.00 0.02 0.02 81 1008.2
20260505040724 70 112 0.0 0.0 0.00 0.02 0.02 81 1008.7
20260505040220 70 103 1.0 1.0 0.00 0.02 0.02 81 1008.4
20260505035718 70 112 0.0 0.0 0.00 0.02 0.02 80 1008.6
20260505035213 70 118 0.0 0.0 0.00 0.02 0.02 80 1008.5
20260505034710 71 107 0.0 0.0 0.05 0.02 0.02 79 1008.7
20260505034207 70 133 0.0 1.0 0.05 0.02 0.02 79 1008.7
20260505033703 71 126 0.0 1.0 0.00 0.01 0.01 79 1008.5
20260505033202 71 111 0.0 0.0 0.00 0.01 0.01 78 1008.3
20260505032659 71 103 0.0 0.0 0.00 0.01 0.01 77 1008.2
20260505032155 71 117 0.0 0.0 0.00 0.01 0.01 76 1008.2
20260505031653 71 111 0.0 1.0 0.00 0.01 0.01 76 1008.3
20260505031149 71 104 1.0 1.0 0.00 0.01 0.01 76 1008.1
20260505030646 71 112 1.0 1.0 0.00 0.01 0.01 76 1007.9
20260505030141 71 117 0.0 1.0 0.00 0.01 0.01 76 1008.2
20260505025638 71 107 0.0 0.0 0.00 0.01 0.01 78 1008.1
20260505025136 71 99 0.0 0.0 0.00 0.01 0.01 76 1008.2
20260505024634 71 103 0.0 0.0 0.00 0.01 0.01 76 1008.0
20260505024131 71 116 0.0 0.0 0.00 0.01 0.01 76 1007.8
20260505023628 70 113 0.0 0.0 0.00 0.01 0.01 76 1008.2
20260505023125 69 122 0.0 0.0 0.00 0.01 0.01 80 1008.1
20260505022623 69 105 0.0 0.0 0.00 0.01 0.01 80 1008.4
20260505022119 69 117 0.0 0.0 0.00 0.01 0.01 79 1008.2
20260505021616 70 113 0.0 0.0 0.00 0.01 0.01 79 1008.1
20260505021113 70 115 0.0 0.0 0.00 0.01 0.01 78 1008.4
20260505020608 70 115 0.0 0.0 0.00 0.01 0.01 79 1008.0
20260505020105 70 110 0.0 0.0 0.00 0.01 0.01 78 1008.1
20260505015602 70 116 0.0 0.0 0.00 0.01 0.01 77 1007.9
20260505015059 71 116 0.0 0.0 0.00 0.01 0.01 77 1008.1
20260505014555 71 116 0.0 0.0 0.00 0.01 0.01 76 1007.9
20260505014053 71 116 0.0 0.0 0.00 0.01 0.01 76 1008.1
20260505013550 71 118 0.0 0.0 0.00 0.01 0.01 77 1007.6
20260505013047 71 113 0.0 0.0 0.00 0.01 0.01 77 1007.8
20260505012545 72 118 0.0 0.0 0.00 0.01 0.01 75 1007.9
20260505012042 72 107 0.0 0.0 0.00 0.01 0.01 75 1007.7
20260505011537 72 108 0.0 0.0 0.00 0.01 0.01 73 1007.7
20260505011035 73 111 0.0 0.0 0.00 0.01 0.01 72 1007.8
20260505010530 73 110 0.0 0.0 0.00 0.01 0.01 72 1007.8
20260505010027 73 110 0.0 0.0 0.00 0.01 0.01 71 1007.6
20260505005523 74 110 0.0 0.0 0.00 0.01 0.01 69 1007.6
20260505005021 74 113 0.0 0.0 0.00 0.01 0.01 70 1007.7
20260505004517 74 112 0.0 0.0 0.00 0.01 0.01 70 1007.6
20260505004014 74 117 0.0 0.0 0.00 0.01 0.01 69 1007.4
20260505003511 75 108 0.0 0.0 0.00 0.01 0.01 68 1007.6
20260505003009 75 110 0.0 0.0 0.00 0.01 0.01 67 1007.6
20260505002504 75 104 0.0 0.0 0.00 0.01 0.01 65 1007.5
20260505002003 76 115 0.0 0.0 0.00 0.01 0.01 63 1007.7
20260505001500 76 108 0.0 0.0 0.00 0.01 0.01 64 1007.7
20260505000956 77 102 0.0 0.0 0.00 0.01 0.01 61 1007.8
20260505000454 77 116 0.0 1.0 0.00 0.01 0.01 60 1008.0
20260504235951 77 117 1.0 1.0 0.00 0.01 0.01 58 1008.0
20260504235448 77 109 0.0 0.0 0.00 0.01 0.01 60 1007.8
20260504234945 77 111 0.0 0.0 0.00 0.01 0.01 60 1008.0
20260504234442 78 165 0.0 1.0 0.00 0.01 0.01 57 1008.3
20260504233938 77 132 0.0 1.0 0.00 0.01 0.01 56 1008.1
20260504233434 78 98 0.0 0.0 0.00 0.01 0.01 58 1008.2
20260504232931 78 106 0.0 0.0 0.00 0.01 0.01 60 1008.2
20260504232428 78 111 0.0 0.0 0.00 0.01 0.01 59 1008.2
20260504231925 78 112 0.0 0.0 0.00 0.01 0.01 56 1008.3
20260504231422 78 140 1.0 1.0 0.00 0.01 0.01 56 1008.4
20260504230918 78 125 0.0 0.0 0.00 0.01 0.01 57 1008.4
20260504230415 78 115 0.0 0.0 0.00 0.01 0.01 56 1008.2
20260504225914 78 119 0.0 0.0 0.00 0.01 0.01 55 1008.4
20260504225410 78 105 1.0 2.0 0.00 0.01 0.01 55 1008.4
20260504224908 78 104 0.0 0.0 0.00 0.01 0.01 56 1008.6
20260504224404 78 110 0.0 0.0 0.00 0.01 0.01 56 1008.6
20260504223901 78 124 0.0 0.0 0.00 0.01 0.01 56 1008.4
20260504223356 79 119 0.0 0.0 0.00 0.01 0.01 54 1008.8
20260504222853 79 131 0.0 1.0 0.00 0.01 0.01 53 1008.6
20260504222350 79 152 0.0 0.0 0.00 0.01 0.01 53 1009.0
20260504221849 80 129 0.0 1.0 0.00 0.01 0.01 52 1008.8
20260504221345 80 103 1.0 1.0 0.00 0.01 0.01 52 1009.1
20260504220842 80 133 2.0 2.0 0.00 0.01 0.01 51 1009.0
20260504220339 80 128 0.0 1.0 0.00 0.01 0.01 50 1009.0
20260504215836 80 102 0.0 0.0 0.00 0.01 0.01 53 1008.9
20260504215332 80 136 0.0 1.0 0.00 0.01 0.01 50 1009.1
20260504214828 80 120 0.0 0.0 0.00 0.01 0.01 50 1009.3
20260504214326 80 127 1.0 1.0 0.00 0.01 0.01 49 1009.2
20260504213822 80 140 1.0 1.0 0.00 0.01 0.01 50 1009.4
20260504213318 80 129 1.0 1.0 0.00 0.01 0.01 49 1009.5
20260504212815 80 49 1.0 1.0 0.00 0.01 0.01 48 1009.6
20260504212311 80 127 1.0 1.0 0.00 0.01 0.01 48 1009.8
20260504211809 80 189 1.0 1.0 0.00 0.01 0.01 50 1009.9
20260504211305 80 121 1.0 1.0 0.00 0.01 0.01 50 1010.0
20260504210803 79 122 0.0 0.0 0.00 0.01 0.01 50 1010.1
20260504210300 79 79 1.0 1.0 0.00 0.01 0.01 49 1010.3
20260504205757 79 124 2.0 3.0 0.00 0.01 0.01 49 1010.2
20260504205255 79 98 0.0 0.0 0.00 0.01 0.01 52 1010.3
20260504204752 79 112 0.0 0.0 0.00 0.01 0.01 48 1010.5
20260504204251 80 136 0.0 1.0 0.00 0.01 0.01 49 1010.8
20260504203750 80 123 0.0 1.0 0.00 0.01 0.01 49 1010.5
20260504203246 81 143 1.0 2.0 0.00 0.01 0.01 47 1010.7
20260504202741 81 129 1.0 1.0 0.00 0.01 0.01 47 1010.9
20260504202239 80 115 0.0 0.0 0.00 0.01 0.01 46 1010.7
20260504201736 80 120 1.0 1.0 0.00 0.01 0.01 47 1010.9
20260504201233 80 124 1.0 1.0 0.00 0.01 0.01 47 1010.9
20260504200731 80 105 0.0 1.0 0.00 0.01 0.01 48 1011.1
20260504200226 80 154 1.0 1.0 0.00 0.01 0.01 49 1010.9
20260504195723 80 117 0.0 0.0 0.00 0.01 0.01 47 1011.4
20260504195219 80 160 2.0 2.0 0.00 0.01 0.01 47 1011.4
20260504194716 80 125 0.0 1.0 0.00 0.01 0.01 48 1011.4
20260504194212 79 119 0.0 0.0 0.00 0.01 0.01 47 1011.5
20260504193709 79 100 0.0 1.0 0.00 0.01 0.01 48 1011.8
20260504193206 79 83 4.0 5.0 0.00 0.01 0.01 47 1011.8
20260504192704 79 55 0.0 1.0 0.00 0.01 0.01 47 1011.7
20260504192202 78 104 1.0 2.0 0.00 0.01 0.01 48 1011.7
20260504191701 78 131 1.0 2.0 0.00 0.01 0.01 48 1011.9
20260504191156 79 49 1.0 2.0 0.00 0.01 0.01 47 1012.1
20260504190652 78 68 0.0 1.0 0.00 0.01 0.01 47 1012.0
20260504190149 78 100 0.0 1.0 0.00 0.01 0.01 48 1012.1
20260504185645 78 88 0.0 1.0 0.00 0.01 0.01 51 1012.2
20260504185142 78 94 1.0 1.0 0.00 0.01 0.01 48 1012.0
20260504184638 78 109 0.0 0.0 0.00 0.01 0.01 48 1012.2
20260504184133 78 122 1.0 1.0 0.00 0.01 0.01 50 1012.3
20260504183631 78 108 0.0 0.0 0.00 0.01 0.01 50 1012.5
20260504183128 78 59 0.0 0.0 0.00 0.01 0.01 47 1012.5
20260504182626 77 106 0.0 0.0 0.00 0.01 0.01 48 1012.9
20260504182123 77 131 1.0 2.0 0.00 0.01 0.01 49 1013.1
20260504181620 77 178 1.0 1.0 0.00 0.01 0.01 49 1013.0
20260504181118 77 122 1.0 2.0 0.00 0.01 0.01 50 1013.0
20260504180617 77 118 0.0 0.0 0.00 0.01 0.01 50 1013.0
20260504180115 77 114 0.0 0.0 0.00 0.01 0.01 50 1013.0
20260504175612 76 200 0.0 1.0 0.00 0.01 0.01 52 1012.9
20260504175109 76 127 0.0 1.0 0.00 0.01 0.01 51 1013.3
20260504174607 76 197 1.0 2.0 0.00 0.01 0.01 51 1013.5
20260504174103 75 116 0.0 1.0 0.00 0.01 0.01 49 1013.6
20260504173600 76 155 1.0 1.0 0.00 0.01 0.01 49 1013.7
20260504173058 76 175 1.0 2.0 0.00 0.01 0.01 48 1013.6
20260504172554 76 174 1.0 2.0 0.00 0.01 0.01 50 1013.8
20260504172050 76 98 1.0 2.0 0.00 0.01 0.01 50 1013.7
20260504171547 75 120 0.0 0.0 0.00 0.01 0.01 50 1013.6
20260504171044 75 77 2.0 3.0 0.00 0.01 0.01 52 1013.8
20260504170540 75 145 1.0 2.0 0.00 0.01 0.01 52 1013.8
20260504150924 69 103 1.0 2.0 0.00 0.01 0.01 62 1014.9
20260504150421 69 116 1.0 1.0 0.00 0.01 0.01 62 1014.9
20260504140847 62 112 0.0 0.0 0.00 0.01 0.01 85 1015.0
20260504140343 62 113 0.0 0.0 0.00 0.01 0.01 89 1015.2